Location: *
(44.0807°N, 71.6846°W)
Time: 22:10:11
(UTC+00:00)

Daily predictions for brighter satellites

Satellite Brightness Start Highest point End
(mag) Time Altitude Azimuth Time Altitude Azimuth Time Altitude Azimuth
Cosmos 1238 Rocket 4.5 21:38:01 10° SW 21:41:14 29° WNW 21:44:07 10° NNW
DMSP B5D2-2 4.2 21:37:39 10° NNE 21:42:47 56° E 21:47:54 10° S
Cosmos 1603 4.4 21:38:58 10° N 21:43:59 31° NE 21:48:57 10° ESE
Cosmos 1782 4.5 21:43:33 10° ESE 21:45:42 14° E 21:47:52 10° NE
Cosmos 1500 2.9 21:44:19 10° N 21:47:51 76° E 21:51:23 10° SSE
SL-8 R/B 3.7 21:43:31 10° WNW 21:48:18 75° NNE 21:53:05 10° ESE
Cosmos 1812 Rocket 4.4 21:47:57 10° SSE 21:51:42 29° E 21:55:29 10° NNE
Helios 1B rocket 2.6 21:48:37 10° S 21:52:32 76° WSW 21:56:30 10° NNW
Helios 1A 4.1 21:49:10 10° NE 21:52:33 24° E 21:55:54 10° SSE
CZ-4B R/B 3.9 21:52:05 10° SE 21:55:30 43° ENE 21:58:58 10° N
SL-16 R/B 3.3 21:51:37 10° NW 21:57:05 50° WSW 22:02:30 10° S
ISS -3.4 21:53:58 10° WNW 21:57:19 68° SW 22:00:38 10° SE
CZ-4B R/B 4.1 21:53:18 10° SE 21:57:45 32° ENE 22:02:07 10° N
Cosmos 405 Rocket 4.1 21:54:24 10° SW 21:57:58 39° WNW 22:01:36 10° N
Cosmos 2344 3.8 21:52:23 10° SSW 21:59:51 51° ESE 22:06:52 10° NE
SMAP 3.0 21:55:28 10° SSE 22:00:03 67° ENE 22:04:42 10° N
Cosmos 1943 3.2 22:02:19 10° NNW 22:07:56 64° ENE 22:13:32 10° SE
BREEZE-M DEB (TANK) 2.0 22:12:23 10° W 22:14:11 32° NNW 22:15:16 20° NE
Cosmos 407 Rocket 3.6 22:09:23 10° N 22:14:23 47° ENE 22:19:18 10° SE
USA 276 2.6 22:17:14 10° W 22:19:29 33° NNW 22:20:31 22° NNE
Cosmos-2242 2.9 22:15:31 10° S 22:19:50 78° E 22:24:11 10° N
APEX 2.3 22:17:36 10° SSW 22:20:38 82° ESE 22:22:30 19° NNE
Lacrosse 4 Rocket 1.3 22:17:33 10° NNW 22:21:53 74° ENE 22:26:06 10° SE
Cosmos 2251 Rocket 3.5 22:17:45 10° NNW 22:23:04 61° ENE 22:28:22 10° SSE
COSMO-SKYMED 1 3.2 22:21:09 12° NNE 22:24:45 35° E 22:28:44 10° SSE
Cosmos 1812 2.5 22:22:33 10° S 22:26:14 90° NNE 22:29:56 10° N
Lacrosse 5 2.2 22:21:25 10° SSW 22:26:15 49° SE 22:29:22 21° ENE
Cosmos 2056 Rocket 4.4 22:22:17 10° SSE 22:26:55 30° E 22:29:48 19° NE
ATLAS 2AS CENTAUR R/B 3.3 22:20:52 10° NNW 22:27:11 35° NE 22:31:37 17° E
[s.n.58448] 4.2 22:25:18 10° W 22:27:36 28° SSW 22:29:35 12° SE
[s.n.58449] 4.2 22:27:19 10° W 22:29:32 27° SSW 22:31:20 13° SE
Cosmos 2221 3.5 22:27:04 10° SE 22:30:31 25° E 22:31:14 24° ENE
[s.n.58459] 4.3 22:29:23 10° W 22:31:42 27° SSW 22:33:32 13° SE
[s.n.58458] 4.3 22:30:07 10° W 22:32:26 27° SSW 22:34:14 13° SE
Cosmos 1844 4.2 22:27:26 10° S 22:32:43 39° ESE 22:36:09 20° NE
[s.n.58447] 4.3 22:30:54 10° W 22:33:10 26° SSW 22:34:54 14° SSE
[s.n.58456] 4.3 22:31:00 10° W 22:33:17 27° SSW 22:35:04 14° SSE
USA 307 3.0 22:30:09 10° WNW 22:33:59 63° SW 22:37:41 10° SE
[s.n.58457] 4.4 22:31:47 10° W 22:34:04 26° SSW 22:35:49 14° SSE
[s.n.58455] 4.4 22:32:35 10° W 22:34:52 26° SSW 22:36:36 14° SSE
[s.n.58454] 4.4 22:33:23 10° W 22:35:40 26° SSW 22:37:21 14° SSE
COSMOS 2455 4.1 22:31:45 10° SSE 22:35:57 20° ESE 22:36:37 20° E
[s.n.58453] 4.4 22:34:13 10° W 22:36:29 26° SSW 22:38:08 14° SSE
[s.n.58452] 4.4 22:34:57 10° W 22:37:13 25° SSW 22:38:51 14° SSE
[s.n.58451] 4.4 22:35:46 10° W 22:38:02 25° SSW 22:39:38 15° SSE
[s.n.58450] 4.5 22:36:34 10° W 22:38:49 25° SSW 22:40:23 15° SSE
Radarsat Rocket 3.9 22:35:24 10° SSE 22:41:07 62° ENE 22:47:06 10° N
Timation 2 Rocket 4.1 22:36:10 10° S 22:41:53 49° ESE 22:45:42 21° NE
Cosmos 1190 Rocket 4.1 22:41:31 10° NNW 22:46:44 53° ENE 22:51:52 10° SE
Cosmos 1818 3.6 22:41:24 10° SW 22:46:50 84° NW 22:50:43 20° NNE
Meteor 2-2 Rocket 4.3 22:42:23 10° S 22:48:08 89° W 22:54:03 10° N
Meteor 1-25 Rocket 4.3 22:44:42 10° NNW 22:50:23 81° W 22:55:57 10° S
Cosmos 1371 Rocket 4.2 22:46:04 10° S 22:51:05 50° ESE 22:53:37 27° NE
Cosmos 1933 3.1 22:48:09 10° S 22:52:08 74° E 22:54:43 21° NNE
ATLAS CENTAUR R/B 3.3 22:49:20 10° NW 22:54:04 70° SW 23:03:25 10° SE
Cosmos 1553 Rocket 4.3 22:48:25 10° N 22:54:24 42° ENE 23:00:15 10° SE
YAOGAN 1 4.4 22:58:13 17° NNE 22:58:13 17° NNE 22:59:23 10° N
Cosmos 1766 Rocket 3.7 22:52:02 10° N 22:56:13 45° ENE 23:00:22 10° SSE
Cosmos 2026 Rocket 3.9 22:54:02 10° S 23:00:17 85° E 23:06:40 10° N
USA 305 3.6 22:59:36 10° WNW 23:03:17 44° SW 23:05:45 18° SSE
USA 234 3.2 22:59:38 26° NE 23:03:41 83° NW 23:10:13 10° SW
Cosmos 1844 Rocket 2.5 22:58:23 10° SSW 23:03:56 79° ESE 23:07:07 27° NNE
Cosmos 2263 Rocket 4.0 22:59:56 10° WSW 23:04:29 25° NW 23:09:05 10° N
Cosmos 1420 Rocket 3.9 23:01:32 10° SSW 23:06:44 73° ESE 23:09:16 31° NNE
Meteor 1-26 Rocket 4.1 23:01:34 10° S 23:07:02 67° E 23:11:37 16° NNE
ADEOS 3.4 23:06:25 10° SSE 23:11:37 78° ENE 23:16:51 10° NNW
SKYMED 2 3.7 23:09:47 18° N 23:12:55 72° WNW 23:17:14 10° SSW
Cosmos 1624 Rocket 3.8 23:09:32 10° SSW 23:14:44 77° ESE 23:16:39 40° NNE
Cosmos 1092 Rocket 4.2 23:12:04 10° SSW 23:18:10 69° W 23:24:18 10° N
Meteor 1-5 Rocket 4.2 23:14:37 10° N 23:20:22 89° E 23:26:15 10° S
SME Rocket 4.2 23:15:01 10° SSE 23:20:30 68° ENE 23:29:01 10° NNW
Cosmos 1782 4.0 23:17:29 10° SSW 23:21:11 41° WNW 23:23:56 17° NNW
RESURS DK-1 3.8 23:17:11 10° NNW 23:19:08 26° N 23:19:08 26° N
SL-08 R/B 3.2 23:22:26 36° N 23:24:20 81° WNW 23:28:59 10° SSW
Cosmos 1417 Rocket 4.5 23:32:41 10° N 23:46:11 - SSE 23:38:33 61° ENE
Cosmos 676 Rocket 3.9 23:35:22 10° NNW 23:40:42 88° WSW 23:41:13 74° SSE
